TimeEST,TemperatureF,Dew PointF,Humidity,Sea Level PressureIn,VisibilityMPH,Wind Direction,Wind SpeedMPH,Gust SpeedMPH,PrecipitationIn,Events,Conditions,WindDirDegrees,DateUTC
12:51 AM,30.0,12.0,47,29.92,10.0,NNW,10.4,-,N/A,,Clear,330,2014-01-21 05:51:00
1:51 AM,28.0,9.0,45,29.94,10.0,NNW,9.2,-,N/A,,Clear,340,2014-01-21 06:51:00
2:51 AM,27.0,8.1,45,29.96,10.0,NNW,10.4,-,N/A,,Clear,340,2014-01-21 07:51:00
3:51 AM,26.1,6.1,43,29.97,10.0,North,6.9,-,N/A,,Clear,350,2014-01-21 08:51:00
4:51 AM,26.1,6.1,43,29.96,10.0,NNW,10.4,-,N/A,,Clear,340,2014-01-21 09:51:00
5:51 AM,26.1,5.0,41,29.96,10.0,North,5.8,-,N/A,,Overcast,360,2014-01-21 10:51:00
6:51 AM,26.1,3.9,39,29.98,10.0,North,4.6,-,N/A,,Overcast,10,2014-01-21 11:51:00
7:51 AM,26.1,9.0,49,29.96,10.0,NNE,10.4,-,N/A,,Overcast,20,2014-01-21 12:51:00
8:41 AM,24.8,10.4,54,29.99,2.5,NNE,6.9,-,0.00,Snow,Light Snow,20,2014-01-21 13:41:00
8:44 AM,24.8,12.2,59,29.99,1.0,NNE,9.2,-,0.00,Snow,Light Snow,20,2014-01-21 13:44:00
8:51 AM,24.1,12.9,62,29.99,1.0,NE,6.9,-,0.00,Snow,Light Snow,40,2014-01-21 13:51:00
9:13 AM,23.0,15.8,74,30.00,0.8,NNE,5.8,-,0.01,Snow,Light Snow,30,2014-01-21 14:13:00
9:51 AM,21.9,16.0,78,30.01,0.5,NNE,9.2,-,0.03,Snow,Light Snow,30,2014-01-21 14:51:00
9:58 AM,21.2,15.8,80,30.01,0.5,NNE,8.1,-,0.00,Snow,Light Snow,20,2014-01-21 14:58:00
10:51 AM,21.0,15.1,78,30.02,0.5,North,9.2,-,0.03,Snow,Light Snow,360,2014-01-21 15:51:00
11:06 AM,19.4,15.8,86,30.01,0.2,North,11.5,-,0.01,Snow,Heavy Snow,360,2014-01-21 16:06:00
11:51 AM,19.9,14.0,78,29.99,0.2,North,10.4,-,0.04,Snow,Heavy Snow,10,2014-01-21 16:51:00
11:57 AM,19.4,12.2,74,29.99,0.5,North,6.9,18.4,0.01,Snow,Snow,10,2014-01-21 16:57:00
12:48 PM,19.4,12.2,74,29.94,0.5,North,13.8,19.6,0.03,Snow,Snow,10,2014-01-21 17:48:00
12:51 PM,19.0,12.0,74,29.94,0.5,North,11.5,19.6,0.03,Snow,Snow,10,2014-01-21 17:51:00
1:03 PM,19.4,10.4,68,29.92,0.8,North,10.4,21.9,0.00,Snow,Light Snow,10,2014-01-21 18:03:00
1:18 PM,17.6,10.4,73,29.91,1.2,North,8.1,21.9,0.00,Snow,Light Snow,10,2014-01-21 18:18:00
1:51 PM,18.0,10.0,71,29.91,1.2,NNE,13.8,21.9,0.02,Snow,Light Snow,20,2014-01-21 18:51:00
2:25 PM,17.6,10.4,73,29.90,0.5,North,15.0,23.0,0.01,Snow,Snow,10,2014-01-21 19:25:00
2:36 PM,17.6,10.4,73,29.89,0.2,North,12.7,19.6,0.01,Snow,Heavy Snow,10,2014-01-21 19:36:00
2:51 PM,17.1,10.9,77,29.90,0.2,NNE,12.7,18.4,0.04,Snow,Heavy Snow,30,2014-01-21 19:51:00
3:51 PM,16.0,9.0,74,29.91,0.2,North,12.7,21.9,0.03,Snow,Heavy Snow,10,2014-01-21 20:51:00
3:58 PM,15.8,8.6,73,29.91,0.2,North,11.5,20.7,0.00,Snow,Heavy Snow,10,2014-01-21 20:58:00
4:51 PM,15.1,10.0,80,29.91,0.2,North,11.5,-,0.04,Snow,Heavy Snow,350,2014-01-21 21:51:00
5:51 PM,15.1,8.1,74,29.92,0.2,North,8.1,-,0.02,Snow,Heavy Snow,360,2014-01-21 22:51:00
5:58 PM,15.8,8.6,73,29.92,0.2,North,12.7,18.4,0.00,Snow,Heavy Snow,10,2014-01-21 22:58:00
6:31 PM,15.8,8.6,73,29.93,0.2,North,11.5,20.7,0.02,Snow,Heavy Snow,360,2014-01-21 23:31:00
6:51 PM,14.0,8.1,77,29.94,0.5,North,9.2,-,0.02,Snow,Snow,10,2014-01-21 23:51:00
7:27 PM,14.0,8.6,79,29.93,0.5,North,9.2,18.4,0.01,Snow,Snow,10,2014-01-22 00:27:00
7:51 PM,14.0,7.0,74,29.94,0.5,North,11.5,18.4,0.02,Snow,Snow,10,2014-01-22 00:51:00
8:51 PM,12.9,6.1,74,29.94,0.8,North,11.5,19.6,0.01,Snow,Snow,10,2014-01-22 01:51:00
9:51 PM,12.9,5.0,71,29.91,3.0,North,9.2,19.6,0.00,Snow,Snow,10,2014-01-22 02:51:00
9:58 PM,12.2,5.0,73,29.92,3.0,North,10.4,-,0.00,Snow,Blowing Snow,360,2014-01-22 02:58:00
10:51 PM,12.9,3.0,65,29.89,10.0,North,17.3,21.9,0.00,Snow,Light Snow,360,2014-01-22 03:51:00
11:51 PM,12.9,-0.0,56,29.85,7.0,North,16.1,-,0.00,Snow,Blowing Snow,350,2014-01-22 04:51:00